TimeCDT,TemperatureF,Dew PointF,Humidity,Sea Level PressureIn,VisibilityMPH,Wind Direction,Wind SpeedMPH,Gust SpeedMPH,PrecipitationIn,Events,Conditions,WindDirDegrees,DateUTC
12:52 AM,28.0,24.1,85,30.34,10.0,WNW,6.9,-,N/A,,Clear,290,2013-10-24 05:52:00
1:52 AM,27.0,23.0,85,30.35,10.0,WNW,5.8,-,N/A,,Clear,290,2013-10-24 06:52:00
2:52 AM,28.0,24.1,85,30.35,10.0,WNW,5.8,-,N/A,,Clear,300,2013-10-24 07:52:00
3:52 AM,26.1,23.0,88,30.36,10.0,West,6.9,-,N/A,,Clear,280,2013-10-24 08:52:00
4:52 AM,26.1,23.0,88,30.36,10.0,West,5.8,-,N/A,,Clear,280,2013-10-24 09:52:00
5:52 AM,26.1,23.0,88,30.37,10.0,WNW,8.1,-,N/A,,Clear,290,2013-10-24 10:52:00
6:52 AM,27.0,23.0,85,30.38,10.0,WNW,10.4,-,N/A,,Clear,290,2013-10-24 11:52:00
7:52 AM,26.1,23.0,88,30.39,10.0,WNW,8.1,-,N/A,,Clear,290,2013-10-24 12:52:00
8:52 AM,26.1,23.0,88,30.39,10.0,West,5.8,-,N/A,,Clear,260,2013-10-24 13:52:00
9:52 AM,30.9,25.0,79,30.41,10.0,West,4.6,-,N/A,,Clear,260,2013-10-24 14:52:00
10:52 AM,34.0,28.0,79,30.41,10.0,Calm,Calm,-,N/A,,Mostly Cloudy,0,2013-10-24 15:52:00
11:52 AM,37.9,30.0,73,30.41,10.0,NNW,8.1,-,N/A,,Mostly Cloudy,340,2013-10-24 16:52:00
12:52 PM,39.9,30.0,68,30.40,10.0,NNW,6.9,-,N/A,,Clear,330,2013-10-24 17:52:00
1:01 PM,42.1,30.0,62,30.34,10.0,NW,5.8,-,N/A,,Mostly Cloudy,310,2013-10-24 18:01:00
1:17 PM,39.9,28.9,65,30.34,10.0,WNW,10.4,-,N/A,,Mostly Cloudy,300,2013-10-24 18:17:00
1:52 PM,39.9,30.0,68,30.39,10.0,NNW,9.2,-,N/A,,Overcast,330,2013-10-24 18:52:00
2:50 PM,42.8,26.6,53,30.32,10.0,WNW,8.1,-,N/A,,Overcast,290,2013-10-24 19:50:00
2:52 PM,43.0,27.0,53,30.37,10.0,NW,10.4,-,N/A,,Overcast,320,2013-10-24 19:52:00
3:52 PM,41.0,28.0,60,30.37,10.0,NW,5.8,-,N/A,,Overcast,320,2013-10-24 20:52:00
4:52 PM,41.0,27.0,57,30.36,10.0,WNW,5.8,-,N/A,,Mostly Cloudy,300,2013-10-24 21:52:00
5:52 PM,39.9,27.0,60,30.36,10.0,NNW,3.5,-,N/A,,Mostly Cloudy,330,2013-10-24 22:52:00
6:52 PM,37.9,26.1,62,30.35,10.0,Calm,Calm,-,N/A,,Clear,0,2013-10-24 23:52:00
7:52 PM,30.0,25.0,82,30.36,10.0,Calm,Calm,-,N/A,,Clear,0,2013-10-25 00:52:00
8:52 PM,26.1,23.0,88,30.35,10.0,SSE,3.5,-,N/A,,Clear,160,2013-10-25 01:52:00
9:52 PM,26.1,23.0,88,30.33,10.0,ESE,4.6,-,N/A,,Clear,120,2013-10-25 02:52:00
10:52 PM,25.0,23.0,92,30.33,10.0,SE,3.5,-,N/A,,Clear,140,2013-10-25 03:52:00
11:52 PM,27.0,25.0,92,30.31,10.0,Calm,Calm,-,N/A,,Clear,0,2013-10-25 04:52:00